EW0600 Weather Reports


Display with metric or nautical units.
time (UTC)temp
F
wind
direction
speed
MPH
gust
MPH
rain 1hr
in
rain 24hr
in
rain mn
in
humidity
%
barometer
mb
20260503213007 68 316 18.0 25.0 0.00 0.00 0.00 30 1001.9
20260503212244 68 309 15.0 22.0 0.00 0.00 0.00 33 1001.8
20260503211606 68 314 18.0 23.0 0.00 0.00 0.00 32 1001.9
20260503211303 69 313 12.0 21.0 0.00 0.00 0.00 35 1001.8
20260503210244 69 293 13.0 21.0 0.00 0.00 0.00 36 1001.9
20260503210002 68 304 15.0 21.0 0.00 0.00 0.00 34 1002.0
20260503205251 68 309 11.0 19.0 0.00 0.00 0.00 34 1002.1
20260503204601 68 309 10.0 17.0 0.00 0.00 0.00 35 1002.2
20260503203058 68 276 13.0 21.0 0.00 0.00 0.00 35 1002.5
20260503203006 68 311 12.0 22.0 0.00 0.00 0.00 35 1002.5
20260503202033 67 299 9.0 19.0 0.00 0.00 0.00 35 1002.4
20260503201502 67 312 7.0 20.0 0.00 0.00 0.00 36 1002.5
20260503200107 67 326 9.0 19.0 0.00 0.00 0.00 33 1002.7
20260503194756 67 304 14.0 23.0 0.00 0.00 0.00 35 1003.0
20260503194502 67 314 14.0 24.0 0.00 0.00 0.00 38 1003.0
20260503193808 67 312 14.0 25.0 0.00 0.00 0.00 34 1003.0
20260503193101 67 304 15.0 27.0 0.00 0.00 0.00 35 1003.1
20260503192751 67 314 17.0 26.0 0.00 0.00 0.00 34 1003.0
20260503191502 66 316 14.0 28.0 0.00 0.00 0.00 36 1002.9
20260503190609 66 323 16.0 27.0 0.00 0.00 0.00 35 1003.0
20260503190110 66 321 15.0 24.0 0.00 0.00 0.00 37 1003.1
20260503185549 66 301 17.0 24.0 0.00 0.00 0.00 37 1003.1
20260503184608 67 323 16.0 22.0 0.00 0.00 0.00 37 1003.1
20260503184502 66 282 18.0 22.0 0.00 0.00 0.00 37 1003.1
20260503183621 67 300 14.0 22.0 0.00 0.00 0.00 41 1003.1
20260503183104 66 330 11.0 22.0 0.00 0.00 0.00 44 1003.3
20260503182611 66 307 13.0 24.0 0.00 0.00 0.00 40 1003.2
20260503181625 66 328 14.0 24.0 0.00 0.00 0.00 41 1003.3
20260503181504 65 351 10.0 25.0 0.00 0.00 0.00 40 1003.4
20260503180609 66 320 13.0 22.0 0.00 0.00 0.00 40 1003.4
20260503180105 65 317 16.0 23.0 0.00 0.00 0.00 42 1003.5
20260503174519 65 309 13.0 21.0 0.00 0.00 0.00 42 1003.5
20260503174503 65 293 13.0 22.0 0.00 0.00 0.00 42 1003.6
20260503173106 65 360 12.0 23.0 0.00 0.00 0.00 43 1003.6
20260503172411 65 332 13.0 23.0 0.00 0.00 0.00 42 1003.6
20260503171345 65 307 14.0 21.0 0.00 0.00 0.00 48 1003.6
20260503160130 63 352 15.0 22.0 0.00 0.00 0.00 48 1003.7
20260503130536 53 321 8.0 12.0 0.00 0.00 0.00 62 1002.6
20260503110306 51 195 6.0 8.0 0.00 0.00 0.00 59 1001.2
20260503110104 51 212 6.0 9.0 0.00 0.00 0.00 59 1001.3
20260503100111 53 220 8.0 13.0 0.00 0.00 0.00 56 1001.7
20260503100108 54 220 8.0 15.0 0.00 0.00 0.00 56 1001.6
20260503080822 56 161 8.0 14.0 0.00 0.00 0.00 54 1002.4
20260503080103 56 198 8.0 17.0 0.00 0.00 0.00 53 1002.4
20260503072733 57 211 8.0 14.0 0.00 0.00 0.00 56 1002.9
20260503071502 56 194 8.0 14.0 0.00 0.00 0.00 58 1003.2
20260503070659 56 209 10.0 15.0 0.00 0.00 0.00 60 1003.5
20260503070103 55 188 10.0 14.0 0.00 0.00 0.00 62 1003.6
20260503060119 51 242 16.0 36.0 0.00 0.00 0.00 90 1005.4
20260503054502 58 282 17.0 28.0 0.00 0.00 0.00 58 1005.7
20260503054217 60 255 17.0 27.0 0.00 0.00 0.00 54 1005.6
20260503053237 59 262 11.0 18.0 0.00 0.00 0.00 50 1005.6
20260503053103 59 263 15.0 19.0 0.00 0.00 0.00 50 1005.5
20260503051502 57 229 10.0 17.0 0.00 0.00 0.00 51 1005.2
20260503051155 58 243 11.0 16.0 0.00 0.00 0.00 50 1005.3
20260503050138 57 224 8.0 14.0 0.00 0.00 0.00 53 1005.4
20260503045120 57 200 7.0 11.0 0.00 0.00 0.00 52 1005.2
20260503044503 57 192 7.0 12.0 0.00 0.00 0.00 52 1005.4
20260503044107 57 194 7.0 11.0 0.00 0.00 0.00 52 1005.4
20260503043103 56 214 6.0 9.0 0.00 0.00 0.00 52 1005.6
20260503043039 57 212 5.0 8.0 0.00 0.00 0.00 52 1005.5
20260503042047 57 193 4.0 6.0 0.00 0.00 0.00 51 1005.8
20260503041505 57 201 4.0 8.0 0.00 0.00 0.00 50 1005.9
20260503041038 58 200 3.0 7.0 0.00 0.00 0.00 50 1005.9
20260503040106 57 193 4.0 12.0 0.00 0.00 0.00 50 1006.1
20260503034847 59 215 4.0 8.0 0.00 0.00 0.00 49 1006.1
20260503034505 58 157 4.0 8.0 0.00 0.00 0.00 48 1006.4
20260503033840 59 205 3.0 6.0 0.00 0.00 0.00 48 1006.5
20260503033110 59 200 3.0 8.0 0.00 0.00 0.00 47 1006.6
20260503032821 60 162 4.0 7.0 0.00 0.00 0.00 47 1006.6
20260503031807 60 200 4.0 7.0 0.00 0.00 0.00 46 1006.7
20260503031503 59 177 4.0 8.0 0.00 0.00 0.00 46 1006.8
20260503030822 60 188 4.0 7.0 0.00 0.00 0.00 45 1007.0
20260503030103 60 190 4.0 9.0 0.00 0.00 0.00 46 1007.0
20260503025825 60 204 5.0 8.0 0.00 0.00 0.00 46 1007.0
20260503024826 61 221 4.0 13.0 0.00 0.00 0.00 44 1007.2
20260503024502 61 205 4.0 14.0 0.00 0.00 0.00 44 1007.3
20260503023815 61 244 5.0 13.0 0.00 0.00 0.00 43 1007.5
20260503023111 61 212 4.0 8.0 0.00 0.00 0.00 44 1007.6
20260503022808 61 234 5.0 8.0 0.00 0.00 0.00 44 1007.6
20260503021825 61 248 6.0 15.0 0.00 0.00 0.00 44 1007.9
20260503021502 61 243 5.0 13.0 0.00 0.00 0.00 44 1008.0
20260503020751 61 287 9.0 16.0 0.00 0.00 0.00 44 1007.9
20260503015801 62 251 8.0 16.0 0.00 0.00 0.00 43 1007.9
20260503014732 62 245 5.0 17.0 0.00 0.00 0.00 44 1007.9
20260503014608 61 242 5.0 10.0 0.00 0.00 0.00 43 1007.9
20260503013706 62 258 10.0 20.0 0.00 0.00 0.00 43 1008.0
20260503013002 62 264 12.0 21.0 0.00 0.00 0.00 43 1008.2
20260503012646 63 233 14.0 24.0 0.00 0.00 0.00 42 1008.2
20260503011611 62 278 15.0 24.0 0.00 0.00 0.00 43 1008.2
20260503011609 62 266 10.0 25.0 0.00 0.00 0.00 43 1008.3
20260503010003 62 245 7.0 9.0 0.00 0.00 0.00 41 1008.1
20260503005452 63 266 4.0 8.0 0.00 0.00 0.00 42 1008.0
20260503004602 63 295 7.0 18.0 0.00 0.00 0.00 41 1008.1
20260503004512 63 289 9.0 17.0 0.00 0.00 0.00 40 1008.0
20260503003534 64 274 9.0 17.0 0.00 0.00 0.00 39 1008.3
20260503003002 63 248 8.0 18.0 0.00 0.00 0.00 41 1008.2
20260503002514 64 264 10.0 20.0 0.00 0.00 0.00 38 1008.2
20260503001602 63 242 16.0 21.0 0.00 0.00 0.00 40 1008.3
20260503001517 64 240 13.0 20.0 0.00 0.00 0.00 39 1008.2
20260503000004 63 278 10.0 16.0 0.00 0.00 0.00 39 1008.4
20260502235339 64 249 10.0 22.0 0.00 0.00 0.00 38 1008.3
20260502234605 64 246 8.0 23.0 0.00 0.00 0.00 39 1008.2
20260502234328 64 299 7.0 22.0 0.00 0.00 0.00 38 1008.1
20260502233337 64 218 10.0 29.0 0.00 0.00 0.00 39 1008.2
20260502233002 64 282 10.0 28.0 0.00 0.00 0.00 39 1008.2
20260502231613 65 236 14.0 22.0 0.00 0.00 0.00 37 1008.3
20260502231253 65 240 10.0 15.0 0.00 0.00 0.00 37 1008.3
20260502230244 65 227 8.0 21.0 0.00 0.00 0.00 36 1008.4
20260502230002 65 233 7.0 17.0 0.00 0.00 0.00 38 1008.4
20260502225254 65 289 13.0 21.0 0.00 0.00 0.00 37 1008.6
20260502224604 65 231 13.0 19.0 0.00 0.00 0.00 36 1008.6
20260502224303 65 249 10.0 18.0 0.00 0.00 0.00 36 1008.5
20260502223309 66 263 10.0 15.0 0.00 0.00 0.00 36 1008.8
20260502223002 65 243 10.0 16.0 0.00 0.00 0.00 36 1008.9
20260502221602 66 262 14.0 22.0 0.00 0.00 0.00 36 1009.0
20260502221141 66 230 10.0 17.0 0.00 0.00 0.00 36 1008.9
20260502220156 66 265 15.0 21.0 0.00 0.00 0.00 34 1009.1
20260502220002 66 245 18.0 22.0 0.00 0.00 0.00 34 1009.1
20260502215126 66 264 11.0 21.0 0.00 0.00 0.00 39 1009.1
20260502214602 66 263 14.0 22.0 0.00 0.00 0.00 36 1009.3
20260502214127 66 243 11.0 21.0 0.00 0.00 0.00 35 1009.3